Weather History for Algona, IA

Change the Weather History Date:

Tuesday, July 1, 2014

  Actual Average Record
Temperature  
Mean Temperature 64 °F -  
Max Temperature 73 °F 80 °F 95 °F (2011)
Min Temperature 55 °F 61 °F 53 °F (2005)
Degree Days  
Heating Degree Days 1    
Growing Degree Days 14 (Base 50)    
Moisture  
Dew Point 57 °F    
Average Humidity 74    
Maximum Humidity 94    
Minimum Humidity 60    
Precipitation  
Precipitation 0.00 in - - ()
Sea Level Pressure  
Sea Level Pressure 29.78 in    
Wind  
Wind Speed 16 mph (WNW)    
Max Wind Speed 30 mph    
Max Gust Speed 34 mph    
Visibility 10 miles    
Events      
Averages and records for this station are not official NWS values.
T = Trace of Precipitation, MM = Missing Value Source: NWS Daily Summary

Daily Weather History Graph

Daily Weather History Graph

Search for Another Location

Airport:

Trip Planner

Search our weather history database for the weather conditions in past years. The results will help you decide how hot, cold, wet, or windy it might be!

Date:

Astronomy

Jul. 01, 2014 Rise Set
Actual Time 5:41 AM CDT 9:00 PM CDT
Civil Twilight 5:06 AM CDT 9:35 PM CDT
Nautical Twilight 4:20 AM CDT 10:21 PM CDT
Astronomical Twilight 3:24 AM CDT 11:17 PM CDT
Moon 9:57 AM CDT (7/1) 11:16 PM CDT (7/1)
Length of Visible Light 16h 29m
Length of Day
15h 18m
Waxing Crescent, 17% of the Moon is Illuminated
Jul 1
Waxing Crescent
Jul 5
First Quarter
Jul 12
Full
Jul 18
Last Quarter
Jul 26
New

Hourly Weather History & Observations

Time (CDT) Temp. Dew Point Humidity Pressure Visibility Wind Dir Wind Speed Gust Speed Precip Events Conditions
12:35 AM 66.2 °F 55.4 °F 68% 29.70 in 10.0 mi West 15.0 mph 23.0 mph N/A   Clear
12:55 AM 64.4 °F 55.4 °F 73% 29.69 in 10.0 mi West 15.0 mph - N/A   Clear
1:15 AM 64.4 °F 55.4 °F 73% 29.68 in 10.0 mi West 16.1 mph - N/A   Clear
1:35 AM 64.4 °F 55.4 °F 73% 29.70 in 10.0 mi West 11.5 mph 19.6 mph N/A   Clear
2:15 AM 62.6 °F 57.2 °F 82% 29.70 in 10.0 mi West 11.5 mph 18.4 mph N/A   Clear
2:35 AM 62.6 °F 57.2 °F 82% 29.71 in 10.0 mi WSW 13.8 mph - N/A   Clear
2:55 AM 62.6 °F 57.2 °F 82% 29.71 in 10.0 mi WSW 12.7 mph - N/A   Clear
3:15 AM 62.6 °F 57.2 °F 82% 29.70 in 10.0 mi West 11.5 mph 18.4 mph N/A   Clear
3:35 AM 62.6 °F 57.2 °F 82% 29.71 in 10.0 mi WSW 11.5 mph - N/A   Clear
3:55 AM 60.8 °F 57.2 °F 88% 29.72 in 10.0 mi SW 8.1 mph 15.0 mph N/A   Clear
4:15 AM 60.8 °F 57.2 °F 88% 29.71 in 10.0 mi SW 12.7 mph - N/A   Scattered Clouds
4:35 AM 59.0 °F 57.2 °F 94% 29.71 in 10.0 mi SW 10.4 mph - N/A   Partly Cloudy
5:15 AM 59.0 °F 57.2 °F 94% 29.70 in 10.0 mi SW 10.4 mph - N/A   Partly Cloudy
5:35 AM 60.8 °F 57.2 °F 88% 29.71 in 10.0 mi WSW 11.5 mph - N/A   Partly Cloudy
6:35 AM 62.6 °F 57.2 °F 82% 29.72 in 10.0 mi West 16.1 mph - N/A   Scattered Clouds
7:15 AM 64.4 °F 59.0 °F 83% 29.71 in 10.0 mi West 18.4 mph 24.2 mph N/A   Scattered Clouds
7:35 AM 66.2 °F 59.0 °F 78% 29.70 in 10.0 mi West 16.1 mph 23.0 mph N/A   Partly Cloudy
8:15 AM 66.2 °F 59.0 °F 78% 29.72 in 10.0 mi West 19.6 mph 26.5 mph N/A   Clear
8:35 AM 66.2 °F 60.8 °F 83% 29.73 in 10.0 mi West 15.0 mph 24.2 mph N/A   Clear
8:55 AM 68.0 °F 59.0 °F 73% 29.74 in 10.0 mi West 23.0 mph 31.1 mph N/A   Mostly Cloudy
9:15 AM 68.0 °F 59.0 °F 73% 29.74 in 10.0 mi West 19.6 mph 26.5 mph N/A   Mostly Cloudy
9:35 AM 68.0 °F 60.8 °F 78% 29.74 in 10.0 mi West 16.1 mph 24.2 mph N/A   Scattered Clouds
9:55 AM 69.8 °F 60.8 °F 73% 29.74 in 10.0 mi West 19.6 mph 26.5 mph N/A   Mostly Cloudy
10:15 AM 69.8 °F 59.0 °F 68% 29.74 in 10.0 mi West 20.7 mph 29.9 mph N/A   Overcast
10:35 AM 71.6 °F 59.0 °F 64% 29.74 in 10.0 mi West 21.9 mph 29.9 mph N/A   Mostly Cloudy
11:15 AM 71.6 °F 59.0 °F 64% 29.74 in 10.0 mi West 18.4 mph 28.8 mph N/A   Mostly Cloudy
11:35 AM 71.6 °F 59.0 °F 64% 29.74 in 10.0 mi West 21.9 mph - N/A   Mostly Cloudy
11:55 AM 73.4 °F 59.0 °F 61% 29.74 in 10.0 mi West 23.0 mph 28.8 mph N/A   Mostly Cloudy
12:15 PM 71.6 °F 59.0 °F 64% 29.74 in 10.0 mi West 20.7 mph - N/A   Mostly Cloudy
12:35 PM 71.6 °F 59.0 °F 64% 29.75 in 10.0 mi WNW 18.4 mph 25.3 mph N/A   Mostly Cloudy
12:55 PM 69.8 °F 60.8 °F 73% 29.76 in 9.0 mi West 20.7 mph 28.8 mph N/A   Overcast
1:15 PM 71.6 °F 57.2 °F 60% 29.76 in 10.0 mi WNW 29.9 mph - N/A   Mostly Cloudy
1:35 PM 71.6 °F 57.2 °F 60% 29.76 in 10.0 mi West 21.9 mph 33.4 mph N/A   Scattered Clouds
1:55 PM 69.8 °F 57.2 °F 64% 29.76 in 10.0 mi WNW 24.2 mph 34.5 mph N/A   Mostly Cloudy
2:15 PM 69.8 °F 57.2 °F 64% 29.77 in 10.0 mi WNW 18.4 mph 33.4 mph N/A   Mostly Cloudy
2:35 PM 69.8 °F 59.0 °F 68% 29.77 in 10.0 mi WNW 21.9 mph 29.9 mph N/A   Mostly Cloudy
2:55 PM 69.8 °F 59.0 °F 68% 29.77 in 10.0 mi West 23.0 mph 32.2 mph N/A   Mostly Cloudy
3:15 PM 71.6 °F 59.0 °F 64% 29.78 in 10.0 mi West 23.0 mph 28.8 mph N/A   Mostly Cloudy
3:35 PM 68.0 °F 59.0 °F 73% 29.80 in 10.0 mi WNW 23.0 mph 34.5 mph N/A   Overcast
3:55 PM 66.2 °F 59.0 °F 78% 29.79 in 7.0 mi WNW 15.0 mph 21.9 mph N/A   Mostly Cloudy
4:15 PM 68.0 °F 59.0 °F 73% 29.80 in 10.0 mi NW 21.9 mph 29.9 mph N/A   Overcast
4:35 PM 68.0 °F 57.2 °F 68% 29.81 in 9.0 mi NW 20.7 mph 29.9 mph N/A   Overcast
5:15 PM 66.2 °F 55.4 °F 68% 29.82 in 10.0 mi NW 19.6 mph 26.5 mph N/A   Mostly Cloudy
5:35 PM 68.0 °F 53.6 °F 60% 29.83 in 10.0 mi NW 19.6 mph 29.9 mph N/A   Overcast
6:15 PM 68.0 °F 53.6 °F 60% 29.83 in 10.0 mi NW 15.0 mph 23.0 mph N/A   Overcast
6:35 PM 64.4 °F 53.6 °F 68% 29.85 in 10.0 mi NW 21.9 mph 29.9 mph N/A   Overcast
6:55 PM 62.6 °F 53.6 °F 72% 29.86 in 10.0 mi NW 18.4 mph 28.8 mph N/A   Overcast
7:15 PM 62.6 °F 53.6 °F 72% 29.85 in 10.0 mi NW 11.5 mph 19.6 mph N/A   Overcast
7:35 PM 62.6 °F 53.6 °F 72% 29.85 in 10.0 mi NW 12.7 mph - N/A   Overcast
7:55 PM 62.6 °F 53.6 °F 72% 29.85 in 10.0 mi WNW 13.8 mph - N/A   Overcast
8:15 PM 62.6 °F 53.6 °F 72% 29.86 in 10.0 mi WNW 10.4 mph - N/A   Scattered Clouds
8:35 PM 60.8 °F 53.6 °F 77% 29.86 in 10.0 mi WNW 12.7 mph 18.4 mph N/A   Mostly Cloudy
8:55 PM 62.6 °F 50.0 °F 63% 29.86 in 10.0 mi NNW 11.5 mph 20.7 mph N/A   Overcast
9:15 PM 60.8 °F 51.8 °F 72% 29.88 in 10.0 mi NW 16.1 mph 25.3 mph N/A   Overcast
9:35 PM 59.0 °F 53.6 °F 82% 29.88 in 9.0 mi NW 10.4 mph - N/A   Overcast
9:55 PM 59.0 °F 53.6 °F 82% 29.89 in 10.0 mi NW 16.1 mph - N/A   Overcast
10:15 PM 59.0 °F 53.6 °F 82% 29.90 in 10.0 mi NW 12.7 mph 18.4 mph N/A   Overcast
10:35 PM 59.0 °F 53.6 °F 82% 29.91 in 5.0 mi NW 15.0 mph 24.2 mph N/A   Overcast
10:55 PM 55.4 °F 53.6 °F 94% 29.91 in 9.0 mi NW 11.5 mph - N/A   Overcast
11:15 PM 57.2 °F 53.6 °F 88% 29.91 in 10.0 mi NW 11.5 mph 18.4 mph N/A   Overcast
11:35 PM 55.4 °F 53.6 °F 94% 29.91 in 7.0 mi NNW 10.4 mph 21.9 mph N/A   Overcast